Location: Bamobli
(6.6379°N, 10.9396°W)
Time: 23:09:35
(UTC+00:00)

N. Korean satellite - Pass Details

Date: 11 March 2021
Orbit: 453 x 499 km, 97.2° (Epoch: 12 April)

Event Time Altitude Azimuth Distance (km) Brightness Sun altitude
Rises 05:07:45 0° 35° (NE) 2,565 10.7 -26.7°
Reaches altitude 10° 05:10:17 10° 54° (NE) 1,690 10.0 -26.1°
Maximum altitude 05:12:54 19° 100° (E) 1,246 9.4 -25.5°
Drops below altitude 10° 05:15:31 10° 146° (SE) 1,699 9.7 -24.8°
Sets 05:18:03 0° 164° (SSE) 2,584 10.5 -24.2°
